BMCB-6 Weather Reports


time (UTC)temp
C
wind
direction
speed
KPH
gust
KPH
rain 1hr
cm
rain 24hr
cm
rain mn
cm
humidity
%
barometer
mb
20260505193010 8 0 0.0 0.0 0.00 0.03 0.03 10 1009.6
20260505192008 8 0 0.0 0.0 0.00 0.03 0.03 10 1009.6
20260505190009 9 0 0.0 0.0 0.00 0.03 0.03 10 1009.5
20260505185009 9 0 0.0 0.0 0.00 0.03 0.03 10 1009.4
20260505184009 9 0 0.0 0.0 0.00 0.03 0.03 10 1009.4
20260505183008 9 0 0.0 0.0 0.00 0.03 0.03 10 1009.4
20260505182008 9 0 0.0 0.0 0.00 0.03 0.03 10 1009.5
20260505181008 9 0 0.0 0.0 0.00 0.03 0.03 10 1009.5
20260505180007 9 0 0.0 0.0 0.03 0.03 0.03 10 1009.5
20260505175008 9 0 0.0 0.0 0.03 0.03 0.03 10 1009.5
20260505174008 9 0 0.0 0.0 0.03 0.03 0.03 10 1009.5
20260505173008 9 0 0.0 0.0 0.03 0.03 0.03 10 1009.5
20260505172008 10 0 0.0 0.0 0.03 0.03 0.03 10 1009.5
20260505170007 10 0 0.0 0.0 0.03 0.03 0.03 10 1009.5
20260505165008 10 0 0.0 0.0 0.00 0.00 0.00 10 1009.6
20260505164007 10 0 0.0 0.0 0.00 0.00 0.00 10 1009.6
20260505162008 10 0 0.0 0.0 0.00 0.00 0.00 10 1009.6
20260505161008 10 0 0.0 0.0 0.00 0.00 0.00 10 1009.7
20260505152007 10 0 0.0 0.0 0.00 0.00 0.00 10 1009.8
20260505125007 12 0 0.0 0.0 0.00 0.00 0.00 97 1010.1
20260505123007 12 0 0.0 0.0 0.00 0.00 0.00 97 1010.2
20260505120007 12 0 0.0 0.0 0.00 0.00 0.00 95 1010.2
20260505113008 12 0 0.0 0.0 0.00 0.00 0.00 94 1010.3
20260505112007 13 0 0.0 0.0 0.00 0.00 0.00 90 1010.2
20260505102011 13 0 0.0 0.0 0.00 0.00 0.00 88 1010.7
20260505101007 13 0 0.0 0.0 0.00 0.00 0.00 88 1010.8
20260505095008 13 0 0.0 0.0 0.00 0.00 0.00 89 1010.8
20260505093011 12 0 0.0 0.0 0.00 0.00 0.00 90 1010.9
20260505092007 12 0 0.0 0.0 0.00 0.00 0.00 90 1010.9
20260505084007 12 0 0.0 0.0 0.00 0.00 0.00 93 1011.0
20260505082007 11 0 0.0 0.0 0.00 0.00 0.00 99 1011.1
20260505081007 11 0 0.0 0.0 0.00 0.00 0.00 10 1011.2
20260505075007 11 0 0.0 0.0 0.00 0.00 0.00 10 1011.3
20260505072008 11 0 0.0 0.0 0.00 0.00 0.00 10 1011.5
20260505070007 11 0 0.0 0.0 0.00 0.00 0.00 10 1011.6
20260505065007 11 0 0.0 0.0 0.00 0.00 0.00 10 1011.7
20260505064007 11 0 0.0 0.0 0.00 0.00 0.00 10 1011.7
20260505063008 11 0 0.0 0.0 0.00 0.00 0.00 10 1011.7
20260505060007 10 0 0.0 0.0 0.00 0.00 0.00 10 1011.8
20260505055007 10 0 0.0 0.0 0.00 0.00 0.00 10 1011.8
20260505054007 10 0 0.0 0.0 0.00 0.00 0.00 10 1011.7
20260505051007 10 0 0.0 0.0 0.00 0.00 0.00 10 1011.8
20260505035007 9 0 0.0 0.0 0.00 0.00 0.00 10 1012.0
20260505034007 9 0 0.0 0.0 0.00 0.00 0.00 10 1012.1
20260505032007 9 0 0.0 0.0 0.00 0.00 0.00 10 1012.3
20260505031007 9 0 0.0 0.0 0.00 0.00 0.00 10 1012.4
20260505030007 9 0 0.0 0.0 0.00 0.00 0.00 10 1012.5
20260505024007 9 0 0.0 0.0 0.00 0.00 0.00 10 1012.6
20260505023008 9 0 0.0 0.0 0.00 0.00 0.00 10 1012.6
20260505021008 9 0 0.0 0.0 0.00 0.00 0.00 10 1012.7
20260505020008 9 0 0.0 0.0 0.00 0.00 0.00 10 1012.8
20260505015007 9 0 0.0 0.0 0.00 0.00 0.00 10 1012.9
20260505013007 10 0 0.0 0.0 0.00 0.00 0.00 10 1012.8
20260505012007 9 0 0.0 0.0 0.00 0.00 0.00 10 1012.7
20260505010007 9 0 0.0 0.0 0.00 0.00 0.00 10 1012.7
20260505004008 10 0 0.0 0.0 0.00 0.00 0.00 10 1012.7
20260505002007 10 0 0.0 0.0 0.00 0.00 0.00 10 1013.0
20260505000008 10 0 0.0 0.0 0.00 0.00 0.00 10 1013.2
20260504235008 10 0 0.0 0.0 0.00 0.00 0.00 10 1013.3
20260504234009 10 0 0.0 0.0 0.00 0.00 0.00 10 1013.4
20260504233009 10 0 0.0 0.0 0.00 0.00 0.00 10 1013.5
20260504232009 10 0 0.0 0.0 0.00 0.00 0.00 10 1013.5
20260504231009 10 0 0.0 0.0 0.00 0.00 0.00 10 1013.5
20260504230009 10 0 0.0 0.0 0.00 0.00 0.00 10 1013.6
20260504221009 10 0 0.0 0.0 0.00 0.00 0.00 10 1014.0
20260504220008 10 0 0.0 0.0 0.00 0.00 0.00 10 1014.1
20260504213009 10 0 0.0 0.0 0.00 0.00 0.00 10 1014.2
20260504211008 10 0 0.0 0.0 0.00 0.00 0.00 10 1014.3
20260504205010 11 0 0.0 0.0 0.00 0.00 0.00 99 1014.4
20260504204009 11 0 0.0 0.0 0.00 0.00 0.00 99 1014.5
20260504203008 11 0 0.0 0.0 0.00 0.00 0.00 99 1014.5
20260504202010 11 0 0.0 0.0 0.00 0.00 0.00 99 1014.6
20260504195008 11 0 0.0 0.0 0.00 0.00 0.00 98 1014.4
20260504194008 11 0 0.0 0.0 0.00 0.00 0.00 98 1014.3